Погода в Лорд-Хау-Айленд

Австралия     31°31′37″S   159°04′15″E
темп.,
°C
ветер,
м/с
пор.,
м/с
влажн.,
%
обл.,
%
осадки,
мм/ч
давл.,
гПа
погр.,
м
11 апреля, вс
вс1101:00+22зюз77725 0.1 1006611
04:00+22зюз66740 0.3 1006690
07:00+22з45701 1.1 1008582
10:00+22з34670 1.4 1007496
13:00+22з57670 0.1 1006828
16:00+21з910723 0.1 10071135
19:00+21зюз1112627 0.1 10091722
22:00+20зюз12125752 0.1 10111922
12 апреля, пн
пн1201:00+20зюз111350100 0.0 10112489
04:00+20зюз1113506 0.0 10122314
07:00+19зюз9115724 0.0 10141957
10:00+19зюз101062100 0.2 10151796
13:00+20зюз11116335 0.2 10141736
16:00+20зюз111256100 0.3 10141892
19:00+20зюз111263100 0.3 10161597
22:00+20юз101162100 0.5 10171792
13 апреля, вт
вт1301:00+20юз11126083 0.3 10171829
04:00+19юз121362100 0.5 10171919
07:00+20юз1111550 0.0 10191953
10:00+20ююз1010560 0.0 10191809
13:00+20ююз99570 0.0 10181739
16:00+20ююз895714 0.0 10181771
19:00+20ююз8856100 0.0 10201661
22:00+19юз566787 0.1 10201097
14 апреля, ср
ср1401:00+20ююз66540 0.2 10191649
04:00+20ююз565798 0.2 10191248
07:00+20юз545613 0.0 10201403
10:00+20юз33555 0.0 10191304
13:00+20зюз33580 0.0 10181093
16:00+20юз33590 0.0 10181066
19:00+20зсз33570 0.0 10191082
22:00+20сз33580 0.0 10191009
15 апреля, чт
чт1501:00+20сз45610 0.0 10181049
04:00+20зсз55610 0.0 10171037
07:00+20з55665 0.0 10181124
10:00+21зсз556561 0.0 10181180
13:00+21зсз66667 0.0 10161101
16:00+21зсз556797 0.0 1016938
19:00+22сз666848 0.0 1017938
22:00+22зсз777060 0.0 1017900